Printer-friendly version

IAU Minor Planet Center

Minor Planet Center

MPEC 2007-E58 : 2007 EE26

The following Minor Planet Electronic Circular may be linked-to from your own Web pages, but must not otherwise be redistributed electronically.


Read MPEC 2007-E57 Read MPEC 2007-E59


M.P.E.C. 2007-E58                                Issued 2007 Mar. 12, 20:58 UT

     The Minor Planet Electronic Circulars contain information on unusual
         minor planets and routine data on comets.  They are published
   on behalf of Commission 20 of the International Astronomical Union by the
          Minor Planet Center, Smithsonian Astrophysical Observatory,
                          Cambridge, MA 02138, U.S.A.

             Prepared using the Tamkin Foundation Computer Network

                              MPC@CFA.HARVARD.EDU
          URL http://cfa-www.harvard.edu/iau/mpc.html  ISSN 1523-6714

                                   2007 EE26

Observations:
     K07E26E* C2007 03 10.27303 10 27 39.49 +08 08 50.8          21.7 V EE058G96
     K07E26E  C2007 03 10.28141 10 27 40.68 +08 08 34.7          21.1 V EE058G96
     K07E26E  C2007 03 10.28970 10 27 41.86 +08 08 18.6          21.2 V EE058G96
     K07E26E  C2007 03 10.29795 10 27 42.98 +08 08 02.5          21.8 V EE058G96
     K07E26E  C2007 03 10.34755 10 27 50.04 +08 06 26.6          20.4 V EE058G96
     K07E26E  C2007 03 10.35468 10 27 51.12 +08 06 12.7          20.6 V EE058G96
     K07E26E  C2007 03 10.36175 10 27 52.09 +08 05 58.7          21.2 V EE058G96
     K07E26E  C2007 03 10.36887 10 27 53.13 +08 05 44.7          20.2 V EE058G96
     K07E26E  C2007 03 11.22272 10 30 33.33 +07 39 39.6          21.3 V EE058G96
     K07E26E  C2007 03 11.23108 10 30 34.38 +07 39 25.2          21.8 V EE058G96
     K07E26E  C2007 03 11.24101 10 30 35.67 +07 39 07.6          21.9 V EE058G96
     K07E26E  C2007 03 11.24933 10 30 36.72 +07 38 53.3          21.6 V EE058G96
     K07E26E  C2007 03 11.30883 10 30 44.39 +07 37 09.6                 EE058291
     K07E26E  C2007 03 11.31262 10 30 44.85 +07 37 03.1                 EE058291
     K07E26E  C2007 03 11.31642 10 30 45.35 +07 36 56.4                 EE058291
     K07E26E  C2007 03 12.18845 10 33 13.45 +07 12 13.8          21.2 R EE058734
     K07E26E  C2007 03 12.19452 10 33 14.17 +07 12 03.9          21.0 R EE058734
     K07E26E  C2007 03 12.20060 10 33 14.87 +07 11 54.3          21.6 R EE058734

Observer details:
291 LPL/Spacewatch II.  Observer T. H. Bressi.  1.8-m f/2.7 reflector + CCD.
734 Farpoint Observatory.  Observer G. Hug.  0.7-m reflector + CCD.
G96 Mt. Lemmon Survey.  Observer R. A. Kowalski.  Measurers E. C. Beshore,
    E. J. Christensen, G. J. Garradd, A. R. Gibbs, A. D. Grauer, R. E. Hill,
    R. A. Kowalski, S. M. Larson, R. H. McNaught.  1.5-m reflector + CCD.

Orbital elements:
2007 EE26                                                Earth MOID = 0.0059 AU
Epoch 2007 Apr. 10.0 TT = JDT 2454200.5                 MPC
M  61.99142              (2000.0)            P               Q
n   0.70817406     Peri.  121.97034     -0.26866627     -0.96321987
a   1.2465491      Node   343.61226     +0.87754945     -0.24258489
e   0.2417234      Incl.    1.03381     +0.39714656     -0.11558568
P   1.39           H   26.3           G   0.15           U   7
Residuals in seconds of arc
070310 G96  0.3-  0.0     070310 G96  0.1-  0.0     070311 291  0.1+  0.1-
070310 G96  0.1-  0.0     070310 G96  0.1-  0.0     070311 291  0.2-  0.1+
070310 G96  0.2+  0.1-    070311 G96  0.5+  0.0     070311 291  0.0   0.1+
070310 G96  0.4-  0.3-    070311 G96  0.1-  0.1+    070312 734  0.3+  0.0
070310 G96  0.0   0.2+    070311 G96  0.1+  0.2-    070312 734  0.1+  0.2-
070310 G96  0.8+  0.2+    070311 G96  0.1-  0.0     070312 734  0.4-  0.0

Ephemeris:
2007 EE26                a,e,i = 1.25, 0.24, 1                   q = 0.9452
Date    TT    R. A. (2000) Decl.     Delta      r     Elong.  Phase     V
2007 03 11    10 29.86   +07 47.2    0.0680   1.059   166.3    12.9    21.3
2007 03 13    10 35.28   +06 52.1    0.0746   1.066   165.8    13.2    21.6
2007 03 15    10 39.93   +06 05.5    0.0815   1.073   165.1    13.7    21.8
2007 03 17    10 43.98   +05 25.7    0.0886   1.080   164.3    14.4    22.0
2007 03 19    10 47.57   +04 51.2    0.0959   1.088   163.3    15.2    22.2
2007 03 21    10 50.83   +04 20.9    0.103    1.095   162.3    16.1    22.4

Kyle E. Smalley              (C) Copyright 2007 MPC           M.P.E.C. 2007-E58

Read MPEC 2007-E57 Read MPEC 2007-E59


Our Web policy. Index to the CBAT/MPC/ICQ pages.


Valid HTML 4.01!